Temperature
15 15 16 16 14 12 14 15 15 16 16 17 18 18 17 17 18 19 19 19 19 18 18 17 17 17 17 17 17 17 17 17 17 17 17 16 16 16 16 16 16 16 15 15 15 15 15 15 15
15 15 16 15 12 13 14 14 15 16 17 18 18 18 17 17 18 18 18 18 18 18 18 17 17 17 17 17 17 17 17 17 17 17 16 16 16 16 16 16 15 15 15 15 15 15 15 15 14
14 15 15 12 12 13 15 15 15 16 17 18 17 18 17 17 18 18 18 18 18 18 17 17 17 17 17 17 17 17 17 17 16 16 16 16 16 16 16 16 15 15 15 15 15 15 15 14 14
14 14 14 11 13 13 15 15 15 15 17 17 17 16 17 17 17 18 18 17 17 17 17 17 17 17 17 17 17 17 17 16 16 16 16 16 16 16 16 15 15 15 15 15 15 15 15 14 14
13 14 11 11 12 13 13 15 16 16 16 16 16 15 16 17 17 18 18 17 17 17 17 17 17 17 17 16 16 16 16 16 16 16 16 16 16 16 15 15 15 15 15 15 15 14 14 14 14
13 11 11 12 13 13 13 15 16 15 15 16 16 15 16 17 17 17 17 17 17 17 16 16 16 16 16 16 16 16 16 16 16 16 16 16 16 15 15 15 15 15 15 14 14 14 14 14 14
11 10 11 11 12 13 14 15 15 14 14 15 16 14 15 16 16 16 16 16 16 16 16 16 16 16 16 16 16 16 16 16 16 16 16 16 15 15 15 15 15 14 14 14 14 14 14 14 14
12 10 11 11 12 13 14 15 16 15 15 16 16 15 15 16 16 16 15 15 15 16 16 16 16 16 16 16 16 16 16 16 16 16 16 15 15 15 15 15 15 14 14 14 14 14 14 14 14
11 9 10 11 12 13 14 14 15 15 15 15 16 16 16 16 15 15 15 15 15 15 15 15 16 16 15 15 15 15 15 15 15 15 15 15 15 15 15 15 14 14 14 14 14 14 14 14 13
10 9 10 11 12 13 13 14 14 14 13 14 15 16 16 15 15 15 15 15 15 15 15 15 15 15 15 15 15 15 15 15 15 15 15 15 15 15 15 14 14 14 14 14 14 14 13 13 13
9 9 10 11 12 12 13 13 14 14 13 14 15 15 15 14 14 14 14 14 15 15 15 15 15 15 15 15 15 15 15 15 15 15 15 15 15 15 14 14 14 14 14 14 14 13 13 13 13
9 9 11 11 12 12 12 13 13 13 14 16 16 16 15 14 14 14 14 14 14 14 15 15 15 15 15 15 15 15 15 15 15 15 15 15 14 14 14 14 14 14 14 14 13 13 13 13 13
9 9 10 11 12 12 12 12 12 13 14 15 15 15 15 14 14 14 14 14 14 14 14 14 15 15 15 15 15 15 15 15 15 14 14 14 14 14 14 14 14 14 13 13 13 13 13 13 12
9 9 10 11 11 12 11 11 11 13 14 14 14 14 14 14 14 14 14 14 14 14 14 15 15 15 14 14 15 15 14 14 14 14 14 14 14 14 14 14 13 13 13 13 13 13 13 12 12
9 9 9 10 10 11 11 10 10 12 13 13 13 13 13 13 14 14 14 14 14 14 14 14 15 14 14 14 14 14 14 14 14 14 14 14 14 14 13 13 13 13 13 13 12 12 12 12 12
8 8 8 9 9 10 10 10 10 12 12 12 12 12 13 13 13 13 14 14 14 14 14 14 14 14 14 14 14 14 14 14 14 14 14 14 13 13 13 13 13 13 12 12 12 12 12 12 12
7 7 7 8 9 9 9 9 10 11 11 11 11 12 12 13 13 13 13 13 14 14 14 14 14 14 14 14 14 14 14 14 14 14 13 13 13 13 13 13 13 12 12 12 12 12 12 12 11
6 6 7 7 8 9 8 8 9 10 10 10 11 11 12 12 13 13 13 13 13 14 14 14 14 14 14 14 14 14 14 13 13 13 13 13 13 13 13 13 12 12 12 12 12 12 11 11 11
6 6 6 7 8 8 8 8 9 9 9 9 9 10 11 12 12 13 13 13 13 13 13 14 14 14 14 14 14 13 13 13 13 13 13 13 13 12 12 12 12 12 12 12 12 11 11 11 11
6 6 6 7 8 8 7 8 8 8 8 9 9 9 10 11 12 12 12 13 13 13 13 13 13 14 14 14 14 13 13 13 13 13 13 12 12 12 12 12 12 12 12 11 11 11 11 11 10
6 6 6 7 7 7 8 8 8 8 8 9 9 9 10 10 11 11 12 12 12 13 13 13 13 13 13 13 13 13 13 13 13 13 12 12 12 12 12 12 12 12 12 11 11 11 11 11 10
6 6 7 7 6 6 7 7 7 7 7 7 8 8 9 10 10 11 11 12 12 12 12 13 13 13 13 13 13 13 13 13 13 13 12 12 12 12 12 12 12 11 11 11 11 11 10 10 10
6 6 6 6 6 6 6 6 7 6 7 7 7 7 8 9 10 10 11 11 12 12 12 12 13 13 13 13 13 13 13 13 13 12 12 12 12 12 11 11 11 11 11 11 11 10 10 10 9
6 6 6 5 5 6 6 6 6 5 6 6 6 7 8 8 9 10 11 11 11 11 12 12 12 12 13 12 12 12 12 12 12 12 12 12 11 11 11 11 11 11 11 11 10 10 10 9 9
5 5 5 5 5 5 6 6 5 6 6 6 6 6 7 8 9 9 10 10 11 11 11 11 12 12 12 12 12 12 12 12 12 12 12 11 11 11 11 11 10 10 10 10 10 9 9 9 9
5 5 5 5 5 5 5 5 5 5 5 5 5 6 6 7 8 9 9 10 10 10 11 11 11 11 11 11 11 11 11 11 11 11 11 11 11 11 10 10 10 10 10 10 9 9 9 9 8
4 4 4 4 4 4 4 4 5 5 5 4 4 5 5 6 7 8 9 9 9 10 10 10 10 11 11 11 11 11 11 11 11 11 10 10 10 10 10 10 9 9 9 9 9 9 8 8 8
4 4 3 3 4 4 4 4 5 4 4 4 3 4 5 5 6 7 8 8 9 9 10 10 10 10 10 10 10 10 10 10 10 10 10 10 10 9 9 9 9 9 9 9 8 8 8 8 8
3 3 3 3 3 4 4 5 4 4 3 3 3 3 4 5 5 6 7 7 8 9 9 9 9 9 9 9 10 10 10 10 10 9 9 9 9 9 9 9 8 8 8 8 8 8 8 7 7
3 3 2 3 3 2 3 4 4 3 3 2 2 3 4 4 5 6 6 7 7 8 8 8 8 8 8 9 9 9 9 9 9 9 9 9 9 8 8 8 8 8 8 7 7 7 7 7 7
Wind_Speed
7 5 2 4 5 3 5 5 3 3 3 2 2 5 6 6 5 4 1 8 11 12 14 17 18 18 17 18 18 18 17 17 17 17 16 16 16 15 15 15 15 15 15 16 16 16 15 15 16
4 2 4 4 4 3 6 6 6 5 3 1 1 2 3 2 1 3 4 7 12 13 14 16 18 18 18 18 18 18 17 17 16 16 16 16 15 15 15 14 14 15 15 15 15 15 15 15 15
2 2 4 4 5 8 6 5 7 3 2 0 1 1 2 1 2 3 4 10 11 11 14 16 19 19 18 18 17 17 17 17 16 16 15 15 15 15 14 14 14 15 15 14 14 14 14 14 15
2 3 4 3 8 7 5 3 3 1 1 1 2 0 1 2 2 3 6 11 12 10 13 17 19 19 18 18 17 17 17 16 16 15 15 15 15 14 14 14 14 14 13 14 14 13 13 14 15
3 3 2 4 7 5 5 4 2 1 0 1 2 1 1 4 2 6 9 11 12 10 12 17 19 19 18 18 17 16 16 16 16 15 15 15 15 14 14 14 14 13 13 13 13 13 13 14 14
3 3 4 7 8 5 4 4 1 1 1 1 2 1 1 2 4 6 8 8 9 10 11 15 18 19 18 18 17 17 16 16 16 15 15 15 15 14 14 14 13 13 13 13 13 13 13 13 13
3 4 5 6 5 4 3 2 3 2 2 3 4 3 1 0 3 6 7 7 8 8 9 10 14 17 18 18 17 17 16 16 16 15 14 14 14 14 13 13 13 13 13 13 13 13 13 13 13
3 3 3 5 5 4 2 1 2 4 4 2 4 5 4 4 5 6 7 7 7 7 7 8 11 13 14 15 16 16 16 16 15 15 14 14 13 13 13 13 12 12 12 12 13 13 13 13 13
3 2 6 6 5 3 1 0 2 0 2 1 1 2 2 8 9 9 8 7 8 7 6 8 9 10 12 13 14 15 15 15 15 14 14 13 12 12 11 11 12 11 11 12 12 13 13 13 12
3 5 7 4 3 2 2 2 2 0 0 0 1 2 5 9 11 11 10 11 10 10 8 7 8 9 10 11 11 11 11 12 12 13 13 11 11 10 10 11 11 11 11 11 11 12 12 11 11
3 5 3 3 2 2 2 3 2 3 3 5 5 6 8 9 10 11 11 11 11 10 8 8 8 9 9 8 9 8 9 10 11 12 12 11 10 9 9 8 9 9 9 9 10 10 10 9 9
2 3 3 3 3 3 3 3 3 5 7 5 6 9 11 12 12 12 12 11 9 9 9 8 8 8 9 9 8 8 8 8 8 10 12 11 8 7 7 6 7 7 7 8 8 8 8 9 8
3 3 4 4 4 4 4 4 4 7 7 3 3 7 11 12 11 10 9 10 9 10 9 9 8 9 8 8 7 7 7 7 9 10 10 11 8 6 6 5 6 6 7 7 7 7 7 7 7
3 3 4 4 4 3 4 6 4 8 3 1 4 7 9 11 10 9 9 10 10 11 10 9 9 9 9 8 7 7 7 8 9 9 10 11 9 8 6 5 5 5 6 7 7 6 6 5 5
1 2 5 4 3 2 2 6 7 6 1 2 4 6 8 8 9 10 10 10 11 10 10 10 10 9 9 9 8 8 8 9 7 8 10 10 10 9 7 5 4 5 7 7 7 6 6 4 4
1 1 3 5 2 2 2 8 7 3 2 4 5 5 6 7 8 8 8 8 9 9 10 10 9 10 10 9 8 7 8 8 7 8 9 10 10 10 8 5 4 6 7 7 5 4 3 3 3
1 3 5 5 2 1 3 7 7 3 3 5 5 5 6 6 6 7 7 8 9 10 10 10 9 10 9 8 8 7 7 7 7 8 8 9 9 10 8 6 5 7 6 4 4 3 3 3 2
4 3 3 5 3 2 4 7 8 4 3 5 5 5 5 6 7 6 6 7 8 8 8 9 8 9 8 7 6 5 5 5 6 7 8 9 9 10 9 7 7 7 5 3 3 3 3 3 3
4 3 4 5 4 3 6 9 10 5 3 3 4 4 5 7 5 3 4 5 6 6 7 9 8 9 8 7 7 7 6 5 4 5 7 9 9 10 9 6 6 6 5 5 5 4 4 2 2
4 4 4 4 3 2 5 8 8 5 4 3 4 4 5 5 4 2 2 3 5 6 7 8 9 9 8 6 6 5 5 4 4 4 6 8 9 10 9 7 6 5 5 5 5 4 3 2 1
3 6 6 4 4 2 2 6 6 4 3 3 3 3 4 4 4 4 3 3 4 6 7 8 9 8 8 7 6 5 4 4 3 4 4 5 9 10 9 9 7 6 6 6 6 5 5 3 1
5 4 5 4 2 3 1 4 6 4 5 5 5 5 4 4 4 3 3 3 5 6 6 7 8 8 8 8 8 10 7 6 5 5 5 5 7 8 9 9 8 7 6 6 5 4 4 4 3
5 4 3 3 3 2 1 3 6 3 5 7 6 6 5 4 3 3 3 4 4 4 5 5 6 7 7 8 9 10 7 5 4 4 5 5 4 6 8 8 7 6 5 5 5 4 4 4 4
3 1 1 1 1 4 5 4 5 3 5 6 6 6 5 4 3 3 3 2 1 1 3 3 5 6 6 8 9 9 10 8 8 7 6 5 3 4 5 6 6 6 5 5 5 5 5 4 4
1 2 1 1 1 6 3 4 6 4 4 4 6 6 5 4 3 2 2 1 1 2 3 4 5 5 6 7 7 8 9 10 10 9 8 6 4 3 4 5 5 5 5 6 5 5 4 4 4
2 3 3 3 4 3 1 5 5 3 4 4 5 5 5 4 3 2 2 2 2 3 3 4 5 4 5 6 6 6 7 7 6 7 7 7 5 5 5 5 5 5 5 5 5 4 4 4 4
1 2 2 2 1 2 4 4 5 3 6 7 7 7 6 6 4 3 2 2 1 2 3 4 5 4 5 5 5 6 7 6 6 6 5 5 4 4 5 6 5 5 5 5 5 4 4 3 4
2 3 2 2 2 3 4 4 3 5 7 8 8 8 7 6 6 5 4 3 2 0 1 2 3 4 3 4 5 5 5 6 6 6 6 6 5 5 5 5 5 4 4 4 4 3 3 4 3
1 1 1 1 2 3 2 4 2 3 4 5 6 7 7 7 6 5 4 4 3 2 1 2 2 3 3 3 3 4 4 5 5 6 6 6 5 6 6 6 5 4 4 4 4 3 4 4 3
2 2 3 3 3 2 2 5 2 1 3 4 6 7 7 7 6 5 5 5 5 4 2 2 2 2 2 3 4 4 4 4 5 5 5 5 5 5 5 5 5 4 4 3 4 4 3 4 4
Wind_Direction
339 347 51 57 62 63 233 239 228 245 226 226 170 153 162 167 170 194 113 140 136 143 149 149 149 147 143 138 133 130 127 124 122 119 118 116 114 113 111 109 107 105 102 98 97 95 93 92 93
340 358 55 67 117 197 250 235 225 221 209 143 65 110 128 224 226 126 135 149 140 142 145 148 147 146 143 140 136 133 130 127 125 123 121 119 117 114 112 111 109 105 102 98 96 96 95 94 94
340 38 91 99 164 198 222 226 222 245 241 129 44 48 157 202 163 167 164 148 137 139 143 147 147 145 143 141 138 136 134 131 129 127 125 122 119 117 114 113 110 106 104 102 99 97 96 96 96
59 55 64 131 217 222 218 230 200 243 313 97 128 46 293 8 198 178 146 143 138 138 141 148 147 146 145 142 140 138 136 133 131 129 128 125 123 120 117 114 111 109 106 105 101 98 97 98 97
60 94 129 219 234 242 243 258 192 172 185 92 129 164 306 351 69 126 137 144 143 142 142 150 149 149 147 144 142 140 139 137 134 131 131 129 126 123 120 117 115 111 107 106 104 100 99 99 98
77 100 168 219 234 253 257 252 211 189 196 132 132 157 272 18 103 129 137 140 143 142 142 149 151 150 149 147 144 142 139 137 134 132 131 129 127 124 122 120 117 115 111 108 106 102 100 99 99
138 150 196 208 232 251 255 212 178 202 214 213 168 147 259 138 132 132 130 130 134 136 138 142 149 149 149 147 145 144 141 138 135 132 129 127 125 124 122 121 118 114 110 106 105 102 101 99 100
145 142 191 208 208 238 267 197 195 186 222 203 152 158 199 190 143 127 125 130 133 138 141 141 142 143 144 146 145 144 142 139 136 131 127 123 121 121 121 120 119 116 112 108 106 104 101 100 100
111 159 210 206 197 237 293 222 318 330 143 134 205 201 197 147 140 134 134 142 149 153 151 147 142 140 141 143 144 142 141 138 134 130 127 121 116 116 116 119 120 117 113 110 108 104 100 98 96
139 202 219 212 204 247 287 235 243 72 343 251 342 33 120 143 153 157 161 166 167 170 167 156 150 146 141 142 140 138 137 134 132 131 128 123 119 118 117 116 115 113 109 106 104 101 97 94 91
173 207 230 260 277 297 296 285 247 171 236 219 194 172 155 162 169 173 177 178 179 173 169 164 158 151 144 139 139 137 137 134 133 134 132 128 120 116 113 110 106 104 103 100 97 93 93 94 94
195 250 247 266 297 302 285 290 278 226 239 245 209 173 167 177 186 185 186 185 178 173 173 168 161 156 150 144 145 144 143 141 139 141 139 134 126 120 119 115 112 107 108 105 99 96 95 94 94
240 271 270 279 290 276 287 279 271 266 273 265 182 175 181 187 194 193 188 184 179 180 176 172 163 163 158 150 151 149 150 150 149 148 148 144 137 132 129 124 120 118 119 115 111 106 100 95 90
241 272 287 286 281 284 268 279 270 271 287 195 178 191 197 195 194 193 192 191 188 185 179 173 171 168 162 160 158 156 155 153 151 152 154 151 147 142 138 130 126 128 131 128 123 117 109 101 97
224 309 312 293 274 274 291 290 253 264 265 215 217 212 211 209 202 201 200 197 192 189 182 178 176 170 169 165 162 158 158 155 154 156 156 154 152 150 145 135 133 141 139 129 118 110 105 101 94
99 139 261 281 268 268 165 259 270 269 218 229 229 227 224 223 218 214 207 203 193 186 184 182 180 173 172 169 162 158 157 155 156 158 157 158 157 155 147 138 141 146 138 133 121 110 108 105 105
100 204 233 281 276 236 194 252 276 284 237 243 236 232 232 234 237 226 211 205 195 190 185 180 177 175 174 166 158 152 152 153 157 158 159 161 159 156 150 144 147 145 134 128 127 115 121 119 111
204 214 232 246 277 242 240 258 282 291 253 258 257 243 244 241 244 236 219 208 196 189 184 180 174 170 166 156 146 143 142 150 156 161 165 165 163 160 152 146 147 144 131 128 127 123 106 115 119
206 213 246 256 271 260 249 265 276 283 286 283 284 269 262 256 263 252 220 202 189 183 182 180 177 172 166 168 168 166 171 169 164 166 166 167 165 164 157 147 145 145 149 153 145 131 117 104 111
217 235 258 281 286 266 263 271 272 270 257 257 267 274 272 282 299 287 231 196 188 190 190 185 184 178 177 178 174 167 158 160 161 156 160 170 169 167 162 152 152 152 150 146 148 139 131 120 123
253 215 232 256 314 318 300 290 277 283 268 311 301 290 286 269 269 269 243 211 197 196 197 194 188 182 179 168 153 138 127 122 147 165 172 175 172 169 164 162 157 156 160 168 171 164 153 162 170
264 236 237 253 263 277 190 263 277 294 314 322 312 313 306 293 277 265 243 224 211 210 202 194 186 183 179 169 168 167 173 176 184 179 175 167 167 165 166 164 162 162 163 171 176 171 166 156 169
240 275 253 238 208 274 251 221 283 323 308 309 306 308 306 297 277 260 247 225 219 211 196 190 182 182 180 177 176 174 175 174 159 152 158 168 167 166 166 165 162 162 165 170 170 170 170 173 174
249 340 29 31 147 253 229 204 276 277 270 299 309 308 298 298 294 280 281 252 215 205 191 180 176 179 179 180 178 178 175 170 162 165 174 175 172 166 163 162 163 165 165 171 175 175 175 181 175
83 109 38 341 253 250 221 205 250 266 294 288 302 308 299 297 294 299 313 290 223 207 196 184 178 182 181 177 181 183 179 177 177 177 180 178 177 179 181 165 167 168 167 166 161 168 178 181 177
227 180 178 205 223 273 276 232 252 275 326 340 338 330 329 325 319 305 287 266 228 213 200 188 186 182 179 178 180 174 171 176 180 180 179 182 183 183 175 165 165 167 165 162 160 171 181 176 180
169 212 199 182 259 250 260 283 298 329 355 1 357 356 348 340 335 335 336 324 283 228 208 191 186 175 175 176 169 169 170 168 171 170 170 171 169 165 163 162 164 167 164 163 163 176 183 174 184
174 160 131 156 192 246 274 261 265 319 337 343 349 346 342 348 349 355 355 348 341 273 183 161 165 170 168 160 164 171 171 167 165 162 166 166 166 159 160 158 164 164 163 160 162 172 175 176 194
49 108 136 155 189 184 239 267 248 291 316 330 337 339 338 342 341 342 348 352 3 32 88 127 135 130 140 147 145 145 154 156 157 162 165 162 156 158 163 164 163 163 165 164 166 180 180 182 193
196 186 172 191 244 216 214 269 307 314 329 344 340 342 343 343 344 349 359 11 18 25 45 90 119 124 132 133 128 131 136 141 148 153 155 152 151 150 153 156 155 160 163 169 172 178 182 186 196
Height
1496 1497 1499 1502 1506 1515 1514 1506 1501 1499 1497 1495 1495 1496 1498 1499 1503 1506 1500 1500 1503 1507 1511 1514 1517 1520 1523 1525 1527 1528 1530 1531 1533 1534 1535 1536 1537 1538 1539 1540 1542 1543 1544 1544 1545 1546 1546 1547 1548
1496 1497 1500 1501 1510 1519 1512 1502 1499 1496 1494 1494 1494 1495 1496 1496 1497 1497 1497 1500 1504 1507 1511 1514 1517 1520 1523 1525 1527 1529 1531 1532 1533 1535 1536 1537 1538 1539 1540 1541 1542 1543 1544 1545 1546 1547 1548 1548 1549
1495 1497 1500 1502 1510 1510 1503 1496 1494 1493 1493 1494 1494 1495 1496 1496 1496 1496 1498 1500 1504 1508 1511 1514 1517 1520 1523 1525 1527 1529 1531 1533 1534 1536 1537 1538 1539 1540 1541 1542 1543 1544 1545 1546 1547 1548 1549 1550 1550
1495 1498 1500 1505 1504 1500 1495 1492 1491 1492 1493 1493 1494 1495 1495 1496 1496 1497 1498 1501 1504 1508 1511 1515 1517 1520 1523 1526 1528 1530 1532 1533 1535 1536 1538 1539 1540 1541 1542 1543 1544 1545 1546 1547 1548 1549 1550 1551 1552
1494 1496 1502 1504 1500 1495 1492 1491 1491 1491 1492 1493 1494 1494 1495 1496 1496 1497 1499 1502 1505 1508 1512 1515 1518 1521 1523 1526 1528 1530 1532 1534 1535 1537 1538 1540 1541 1542 1543 1544 1545 1546 1547 1548 1549 1550 1551 1552 1553
1494 1495 1504 1503 1496 1493 1491 1490 1490 1491 1492 1492 1493 1494 1494 1495 1496 1498 1500 1503 1506 1509 1512 1515 1518 1521 1524 1526 1528 1530 1532 1534 1536 1537 1539 1540 1542 1543 1544 1545 1546 1547 1548 1549 1550 1551 1552 1553 1554
1494 1496 1499 1497 1496 1493 1490 1489 1490 1490 1491 1492 1492 1494 1494 1495 1497 1498 1501 1504 1507 1510 1512 1515 1518 1521 1524 1526 1529 1531 1533 1535 1536 1538 1540 1541 1542 1544 1545 1546 1547 1548 1549 1550 1551 1552 1553 1554 1554
1491 1495 1496 1496 1495 1491 1488 1488 1488 1489 1489 1491 1492 1493 1493 1495 1496 1499 1501 1504 1507 1510 1513 1515 1518 1521 1523 1526 1528 1531 1533 1535 1537 1539 1540 1542 1543 1544 1545 1547 1548 1549 1550 1551 1552 1552 1553 1554 1555
1491 1496 1495 1493 1492 1489 1487 1487 1488 1488 1488 1489 1490 1491 1492 1494 1496 1498 1501 1504 1507 1510 1512 1515 1517 1520 1523 1525 1528 1531 1533 1535 1537 1539 1540 1542 1543 1544 1546 1547 1548 1549 1550 1551 1552 1553 1554 1555 1556
1489 1493 1489 1488 1488 1487 1487 1487 1487 1487 1487 1488 1488 1489 1491 1493 1495 1497 1499 1501 1504 1507 1511 1514 1517 1519 1522 1525 1528 1530 1532 1535 1537 1538 1540 1542 1543 1545 1546 1547 1548 1549 1551 1552 1553 1554 1554 1555 1556
1487 1488 1487 1486 1486 1486 1486 1486 1486 1486 1487 1485 1485 1487 1489 1492 1494 1495 1498 1500 1502 1506 1509 1512 1515 1519 1521 1524 1526 1529 1532 1534 1536 1538 1540 1541 1543 1544 1546 1547 1548 1549 1550 1552 1553 1554 1555 1556 1556
1486 1485 1485 1485 1485 1486 1486 1485 1485 1484 1483 1484 1484 1485 1487 1490 1492 1494 1496 1499 1502 1505 1508 1511 1514 1517 1520 1523 1525 1528 1531 1533 1535 1537 1539 1541 1542 1544 1545 1546 1548 1549 1550 1551 1552 1553 1554 1555 1556
1486 1485 1484 1484 1485 1485 1484 1484 1484 1482 1482 1482 1483 1484 1485 1487 1490 1493 1495 1498 1500 1503 1506 1509 1512 1516 1519 1522 1524 1527 1529 1532 1534 1536 1538 1540 1541 1543 1544 1546 1547 1548 1549 1551 1552 1553 1554 1555 1556
1484 1484 1484 1483 1483 1483 1483 1483 1483 1479 1480 1480 1481 1482 1484 1485 1488 1491 1493 1495 1498 1501 1504 1507 1510 1514 1517 1520 1523 1525 1528 1531 1533 1535 1537 1539 1541 1542 1543 1545 1546 1548 1549 1550 1551 1552 1553 1554 1555
1484 1485 1484 1482 1482 1483 1483 1482 1480 1479 1479 1479 1479 1481 1482 1484 1486 1488 1490 1493 1496 1499 1502 1505 1508 1512 1515 1518 1521 1524 1526 1529 1531 1533 1536 1538 1539 1541 1543 1544 1545 1546 1548 1549 1550 1551 1552 1553 1554
1484 1487 1488 1483 1482 1482 1486 1484 1477 1478 1478 1477 1478 1479 1480 1482 1484 1486 1488 1491 1494 1497 1500 1503 1506 1509 1513 1516 1519 1522 1525 1527 1530 1532 1534 1536 1538 1540 1541 1543 1544 1545 1547 1548 1549 1550 1551 1552 1552
1487 1491 1489 1485 1481 1481 1483 1482 1477 1476 1476 1476 1476 1477 1478 1480 1482 1484 1486 1488 1492 1494 1497 1500 1504 1507 1510 1514 1517 1520 1522 1525 1528 1530 1532 1534 1536 1538 1540 1541 1543 1544 1545 1547 1548 1549 1550 1550 1551
1489 1489 1489 1487 1481 1481 1482 1480 1476 1475 1475 1475 1475 1475 1476 1477 1479 1481 1483 1486 1489 1492 1495 1498 1501 1504 1507 1511 1514 1517 1520 1523 1525 1528 1530 1532 1534 1536 1538 1540 1541 1542 1544 1545 1546 1547 1548 1549 1549
1486 1487 1488 1485 1481 1481 1480 1479 1474 1474 1474 1474 1474 1474 1474 1475 1477 1479 1481 1483 1486 1489 1492 1494 1498 1501 1504 1507 1510 1513 1516 1520 1523 1525 1528 1530 1532 1534 1536 1537 1539 1540 1542 1543 1544 1545 1546 1547 1547
1485 1487 1487 1483 1480 1480 1480 1478 1473 1473 1473 1473 1473 1472 1472 1473 1474 1475 1477 1479 1481 1485 1488 1491 1495 1498 1501 1504 1507 1511 1514 1517 1520 1523 1525 1527 1529 1531 1533 1535 1536 1538 1539 1540 1542 1543 1543 1544 1545
1485 1486 1486 1485 1482 1480 1481 1478 1473 1471 1471 1471 1471 1470 1470 1470 1471 1472 1473 1475 1478 1481 1484 1488 1491 1494 1498 1501 1504 1508 1511 1514 1517 1519 1521 1524 1526 1529 1530 1532 1534 1535 1536 1537 1538 1540 1541 1541 1542
1485 1482 1482 1483 1486 1487 1484 1485 1475 1472 1471 1469 1468 1468 1468 1468 1468 1470 1471 1472 1474 1477 1481 1485 1488 1491 1494 1497 1500 1503 1506 1508 1511 1515 1518 1521 1523 1526 1528 1529 1531 1532 1533 1534 1535 1537 1538 1538 1539
1483 1481 1482 1483 1486 1488 1485 1487 1478 1474 1472 1469 1467 1466 1466 1466 1466 1467 1468 1469 1471 1474 1477 1481 1484 1487 1490 1493 1497 1500 1503 1506 1509 1512 1515 1517 1520 1522 1524 1526 1527 1529 1530 1531 1532 1533 1534 1535 1536
1481 1482 1482 1485 1487 1489 1484 1486 1481 1477 1472 1469 1467 1465 1465 1464 1464 1464 1465 1467 1468 1470 1474 1477 1480 1483 1486 1490 1493 1496 1499 1502 1505 1508 1510 1513 1516 1518 1520 1522 1524 1525 1526 1528 1529 1530 1531 1532 1532
1483 1487 1490 1491 1493 1488 1482 1482 1479 1472 1470 1468 1466 1464 1462 1463 1463 1463 1463 1464 1465 1467 1470 1472 1475 1478 1482 1485 1488 1491 1495 1498 1501 1504 1507 1509 1512 1514 1516 1518 1520 1521 1523 1524 1525 1526 1527 1528 1528
1485 1487 1492 1494 1492 1489 1484 1481 1475 1470 1468 1466 1464 1463 1462 1461 1461 1461 1461 1462 1463 1465 1467 1469 1471 1474 1477 1481 1484 1487 1491 1494 1497 1500 1503 1505 1508 1510 1512 1514 1516 1518 1519 1520 1522 1522 1523 1524 1525
1486 1488 1489 1494 1494 1494 1488 1481 1474 1468 1466 1464 1463 1461 1460 1460 1459 1459 1459 1460 1461 1462 1464 1466 1468 1470 1473 1477 1480 1483 1486 1490 1493 1496 1499 1502 1504 1506 1508 1510 1512 1513 1515 1516 1518 1518 1519 1520 1521
1486 1488 1492 1494 1494 1490 1485 1482 1477 1471 1468 1466 1464 1462 1460 1459 1458 1457 1458 1458 1458 1459 1461 1463 1465 1467 1470 1473 1476 1479 1482 1485 1489 1492 1495 1497 1500 1502 1504 1506 1508 1509 1511 1512 1513 1514 1515 1516 1517
1489 1490 1490 1493 1493 1492 1488 1481 1474 1473 1471 1469 1466 1463 1461 1460 1458 1457 1457 1457 1457 1457 1458 1460 1462 1465 1467 1469 1472 1475 1478 1481 1485 1488 1491 1493 1496 1498 1500 1502 1504 1505 1507 1508 1509 1510 1511 1512 1512
1488 1489 1491 1492 1494 1493 1490 1485 1473 1472 1470 1469 1467 1464 1462 1460 1458 1457 1456 1455 1455 1455 1456 1458 1461 1462 1464 1466 1469 1472 1475 1478 1481 1484 1487 1490 1492 1494 1496 1498 1499 1501 1502 1504 1505 1505 1506 1507 1508